Regional Weather Roundup
Issued by NWS

Home | Current Version | Previous Version | Graphics & Text | Print | Product List | Glossary On
Versions: 1 2 3 4 5 6 7 8 9 10 11 12 13 14 15 16 17 18 19 20 21 22 23 24 25 26 27 28 29 30 31 32 33 34 35 36 37 38 39 40 41 42 43 44 45 46 47 48 49 50
790
ASUS43 KDTX 231001
RWRMI
MICHIGAN HOURLY REGIONAL WEATHER ROUNDUP
NATIONAL WEATHER SERVICE DETROIT/PONTIAC MI
600 AM EDT MON APR 23 2018

NOTE: "FAIR" INDICATES FEW OR NO CLOUDS BELOW 12,000 FEET WITH NO
SIGNIFICANT WEATHER AND/OR OBSTRUCTION TO VISIBILITY.

MIZ047>049-052>055-059>063-066>070-074>076-081>083-231100-
SOUTHEAST LOWER MICHIGAN

CITY           SKY/WX    TMP DP  RH WIND       PRES   REMARKS
ADRIAN         FAIR      42  25  50 E9        30.24R
ANN ARBOR      FAIR      43  25  49 NE8       30.24S
BAD AXE        FAIR      40  23  51 E5        30.33R
CARO           FAIR      35  25  66 NE3       30.29F
DETROIT CITY   FAIR      41  28  60 E6        30.26F
DETROIT        FAIR      45  26  47 NE6       30.25S
FLINT          FAIR      35  25  66 NE3       30.27F
GROSSE ILE     FAIR      40  30  66 NE7       30.24S
HILLSDALE      FAIR      41  23  48 E8        30.21R
HOWELL         FAIR      37  25  61 E5        30.25S WCI  33

CITY           SKY/WX    TMP DP  RH WIND       PRES   REMARKS
JACKSON        FAIR      37  26  64 NE3       30.24S
LAMBERTVILLE   FAIR      45  33  63 E6        30.23S
LANSING        FAIR      37  25  61 NE5       30.26F WCI  33
LAPEER         FAIR      37  25  60 E3        30.28S
MASON          FAIR      40  23  50 NE5       30.25S
MONROE         FAIR      40  27  59 NE5       30.23S
MT. CLEMENS    FAIR      43  28  55 NE7       30.26
PONTIAC        FAIR      43  22  43 E5        30.25F
PORT HOPE        N/A     33  29  85 CALM      30.32S
PORT HURON     FAIR      36  25  64 NE5       30.29S WCI  32
TRI CITIES     FAIR      36  31  82 N9        30.30F WCI  29
MIDLAND        FAIR      29  29  98 CALM      30.31S
TROY           FAIR      44  22  42 NE7       30.28S
SAGINAW HB     FAIR      32  27  80 NE6       30.29F WCI  26
$$
MIZ043>046-050>051-056>058-064>065-071>073-077>080-231100-
SOUTHWEST LOWER MICHIGAN

CITY           SKY/WX    TMP DP  RH WIND       PRES   REMARKS
BATTLE CREEK   FAIR      42  24  49 E6        30.23S
BENTON HARBOR  FAIR      42  22  44 E3        30.22R
BIG RAPIDS     FAIR      31  25  78 CALM      30.30S
COLDWATER      FAIR      38  24  57 NE5       30.21S WCI  35
FREMONT        FAIR      39  22  48 NE6       30.28S
HOLLAND        FAIR      42  28  57 E5        30.25S
GRAND RAPIDS   FAIR      39  26  59 NE8       30.26S WCI  33
IONIA          FAIR      39  26  59 NE7       30.26S WCI  34
KALAMAZOO      FAIR      41  23  48 CALM      30.23S
LUDINGTON      FAIR      35  28  74 E6        30.30R WCI  30
MARSHALL       FAIR      39  23  52 NE3       30.23S
MOUNT PLEASANT FAIR      36  28  75 N3        30.30F
MUSKEGON       FAIR      41  27  57 NE7       30.28S
SOUTH HAVEN    FAIR      42  23  46 E3        30.23R
$$
MIZ016>042-231100-
NORTHERN LOWER MICHIGAN

CITY           SKY/WX    TMP DP  RH WIND       PRES   REMARKS
ALPENA         FAIR      25  23  92 CALM      30.35S
BEAVER ISLAND  FAIR      44  19  37 S6        30.32R
BELLAIRE       FAIR      28  26  94 CALM      30.33S
CADILLAC       FAIR      28  23  83 CALM      30.30S
CHARLEVOIX     FAIR      32  24  71 E5        30.35R WCI  27
FRANKFORT      FAIR      37  26  67 CALM      30.31R
GAYLORD        FAIR      32  20  61 SW3       30.32S
HARBOR SPRINGS FAIR      31  26  79 E6        30.32S WCI  26
HOUGHTON LAKE  FAIR      28  24  85 CALM      30.33R
MANISTEE       FAIR      28  25  88 E5        30.31R WCI  23
OSCODA         FAIR      26  20  77 CALM      30.34S
PELLSTON       FAIR      25  21  85 CALM      30.33S
ROGERS CITY    FAIR      37  22  53 CALM      30.35S
TRAVERSE CITY  FAIR      35  26  69 CALM      30.31R
$$
MIZ007>008-015-231100-
EASTERN UPPER MICHIGAN

CITY           SKY/WX    TMP DP  RH WIND       PRES   REMARKS
KINROSS        FAIR      33  20  58 SE7       30.33S WCI  27
MACKINAC ISLAN FAIR      42  17  35 S10       30.32S
NEWBERRY       FAIR      38  20  48 S7        30.30S WCI  33
S. S. MARIE    FAIR      34  22  61 NE5       30.33R WCI  30
MUNISING         N/A     36  20  52 S9        30.27S WCI  29
$$
MIZ004>006-011>014-085-231100-
CENTRAL UPPER MICHIGAN

CITY           SKY/WX    TMP DP  RH WIND       PRES   REMARKS
MANISTIQUE     FAIR      28  26  94 S6        30.30R WCI  21
ESCANABA       FAIR      26  22  84 CALM      30.31R
MENOMINEE      FAIR      30  26  85 CALM      30.30S
SAWYER-GWINN   FAIR      32  19  58 S3        30.28S
$$
MIZ001>003-009>011-084-231100-
WESTERN UPPER MICHIGAN

CITY           SKY/WX    TMP DP  RH WIND       PRES   REMARKS
IRON MOUNTAIN  FAIR      26  20  77 CALM      30.27F
HOUGHTON       FAIR      42  20  41 SW5       30.22R
COPPER HARBOR    N/A     43  21  41 SW8       30.21R
IRONWOOD       FAIR      44  22  41 SW7       30.25R
$$

ABBREVIATIONS USED IN REMARKS
   TC - TEMPERATURE IN CELSIUS
  WCI - WIND CHILL INDEX
   HX - HEAT INDEX
  VSB - VISIBILITY





USA.gov is the U.S. government's official web portal to all federal, state and local government web resources and services.